Flag for Trinidad and Tobago Weather past 2 weeks in Chaguanas, Trinidad and Tobago

Now
77 °F

Passing clouds.


Feels Like: 78 °F
Forecast: 75 / 90 °F
Wind: No wind

Location: Piarco International Airport - Trinidad

Current Time: Oct 21, 2014 at 11:19:46 PM

Latest Report: Oct 21, 2014 at 10:00 PM


Visibility: N/A

Pressure: 29.89 "Hg

Humidity: 94%

Dew point: 75 °F

Location of ChaguanasLocation

Historic Weather in Chaguanas — Graph

°F

Chaguanas temperature yesterday

Maximum temperature yesterday: 90 °F (at 9:00 AM)
Minimum temperature yesterday: 77 °F (at 2:00 AM)
Average temperature yesterday: 82 °F

Past Weeks' High & Low Weather Summary

 TemperatureHumidityPressure
High97 °F (Oct 16, 1:00 PM)100% (Oct 18, 5:00 AM)30.01 "Hg (Oct 18, 5:00 AM)
Low72 °F (Oct 12, 6:00 AM)47% (Oct 12, 1:00 PM)29.74 "Hg (Oct 9, 4:00 PM)
Average82 °F77%29.88 "Hg
* Reported Oct 6 10:00 PM — Oct 21 10:00 PM, Chaguanas, Weather by CustomWeather, © 2014

Note: Actual official high and low records may vary slightly from our data, if they occured in-between our weather recording intervals... More about our weather records

Advertising

Chaguanas weather history for previous 24 hours

 ConditionsComfort  
Time TempWeatherWind HumidityBarometerVisibility
10:00 PM
Oct 21
77 °FPassing clouds.No wind94%29.89 "HgN/A
9:00 PM79 °FPassing clouds.No wind89%29.89 "HgN/A
8:00 PM79 °FPassing clouds.No wind89%29.89 "HgN/A
7:00 PM79 °FPassing clouds.No wind89%29.86 "HgN/A
6:00 PM79 °FPassing clouds.No wind89%29.86 "HgN/A
5:00 PM79 °FPassing clouds.No wind79%29.83 "HgN/A
4:00 PM77 °FPassing clouds.No wind83%29.83 "HgN/A
3:00 PM79 °FLight rain. Scattered clouds.6 mph89%29.83 "Hg4 mi
2:00 PM79 °FSprinkles. Partly sunny.No wind89%29.83 "Hg2 mi
1:00 PM84 °FLight rain. Partly sunny.6 mph84%29.83 "HgN/A
12:00 PM84 °FSprinkles. Scattered clouds.12 mph74%29.86 "HgN/A
11:00 AM93 °FScattered clouds.No wind53%29.89 "HgN/A
10:00 AM90 °FScattered clouds.No wind59%29.92 "HgN/A
9:00 AM88 °FPassing clouds.No wind62%29.92 "HgN/A
8:00 AM84 °FPassing clouds.No wind70%29.89 "HgN/A
7:00 AM79 °FPassing clouds.No wind84%29.89 "HgN/A
6:00 AM75 °FPassing clouds.No wind94%29.86 "HgN/A
5:00 AM75 °FPassing clouds.No wind94%29.83 "HgN/A
4:00 AM75 °FPassing clouds.No wind89%29.83 "HgN/A
3:00 AM77 °FPassing clouds.No wind89%29.86 "HgN/A
2:00 AM77 °FPassing clouds.No wind94%29.86 "HgN/A
1:00 AM77 °FPassing clouds.No wind94%29.86 "HgN/A
12:00 AM77 °FPassing clouds.No wind94%29.89 "HgN/A
11:00 PM
Oct 20
79 °FPassing clouds.No wind84%29.92 "HgN/A
Weather by CustomWeather, © 2014

See weather overviewHow to use our weather pages